Location: ????????
(56.1167°N, 38.6333°E)
Time: 21:35:53
(UTC+00:00)

ASTEX 1 - Pass Details

Date: 18 November 2025
Orbit: 712 x 735 km, 92.7° (Epoch: 14 December)

Event Time Altitude Azimuth Distance (km) Brightness Sun altitude
Rises 13:55:56 0° 3° (N) 3,131 6.4 -6.1°
Reaches altitude 10° 13:58:15 10° 359° (N) 2,206 5.6 -6.4°
Maximum altitude 14:02:59 54° 283° (WNW) 868 4.2 -7.0°
Drops below altitude 10° 14:07:42 10° 207° (SSW) 2,194 6.7 -7.6°
Sets 14:10:00 0° 203° (SSW) 3,111 7.4 -7.9°
